| time (UTC) | temp C | wind direction | speed KPH | gust KPH | rain 1hr cm | rain 24hr cm | rain mn cm | humidity % | barometer mb |
| 20260507043334 | 27 | 1 | 1.6 | 9.7 | 0.00 | 0.00 | 0.00 | 79 | 1019.5 |
| 20260507042830 | 27 | 344 | 0.0 | 4.8 | 0.00 | 0.00 | 0.00 | 79 | 1019.6 |
| 20260507042325 | 27 | 102 | 4.8 | 6.4 | 0.00 | 0.00 | 0.00 | 79 | 1019.9 |
| 20260507041823 | 27 | 9 | 1.6 | 11.3 | 0.00 | 0.00 | 0.00 | 79 | 1019.6 |
| 20260507041319 | 27 | 225 | 1.6 | 1.6 | 0.00 | 0.00 | 0.00 | 79 | 1020.0 |
| 20260507040816 | 27 | 347 | 0.0 | 6.4 | 0.00 | 0.00 | 0.00 | 79 | 1020.0 |
| 20260507040312 | 27 | 356 | 1.6 | 3.2 | 0.00 | 0.00 | 0.00 | 79 | 1019.9 |
| 20260507035808 | 27 | 31 | 4.8 | 6.4 | 0.00 | 0.00 | 0.00 | 79 | 1019.9 |
| 20260507035306 | 27 | 55 | 1.6 | 11.3 | 0.00 | 0.00 | 0.00 | 79 | 1019.9 |
| 20260507034802 | 27 | 80 | 6.4 | 12.9 | 0.00 | 0.00 | 0.00 | 79 | 1019.9 |
| 20260507034258 | 27 | 33 | 1.6 | 4.8 | 0.00 | 0.00 | 0.00 | 79 | 1019.9 |
| 20260507033757 | 27 | 355 | 3.2 | 6.4 | 0.00 | 0.00 | 0.00 | 79 | 1019.7 |
| 20260507033254 | 27 | 348 | 0.0 | 3.2 | 0.00 | 0.00 | 0.00 | 79 | 1019.9 |
| 20260507032751 | 27 | 355 | 1.6 | 4.8 | 0.00 | 0.00 | 0.00 | 79 | 1019.9 |
| 20260507032247 | 27 | 346 | 1.6 | 1.6 | 0.00 | 0.00 | 0.00 | 79 | 1020.1 |
| 20260507031743 | 27 | 348 | 1.6 | 9.7 | 0.00 | 0.00 | 0.00 | 79 | 1019.9 |
| 20260507031241 | 27 | 28 | 0.0 | 6.4 | 0.00 | 0.00 | 0.00 | 79 | 1020.1 |
| 20260507030737 | 27 | 6 | 3.2 | 3.2 | 0.00 | 0.00 | 0.00 | 79 | 1020.2 |
| 20260507030235 | 27 | 22 | 6.4 | 9.7 | 0.00 | 0.00 | 0.00 | 79 | 1020.1 |
| 20260507025732 | 27 | 40 | 6.4 | 11.3 | 0.00 | 0.00 | 0.00 | 80 | 1020.2 |
| 20260507025229 | 27 | 55 | 3.2 | 6.4 | 0.00 | 0.00 | 0.00 | 80 | 1020.0 |
| 20260507024727 | 27 | 229 | 1.6 | 4.8 | 0.00 | 0.00 | 0.00 | 80 | 1020.0 |
| 20260507024224 | 27 | 352 | 3.2 | 4.8 | 0.00 | 0.00 | 0.00 | 80 | 1019.9 |
| 20260507023719 | 27 | 342 | 1.6 | 3.2 | 0.00 | 0.00 | 0.00 | 80 | 1020.2 |
| 20260507023216 | 27 | 335 | 0.0 | 4.8 | 0.00 | 0.00 | 0.00 | 80 | 1020.2 |
| 20260507022714 | 27 | 262 | 1.6 | 3.2 | 0.00 | 0.00 | 0.00 | 80 | 1020.2 |
| 20260507022209 | 27 | 342 | 0.0 | 4.8 | 0.00 | 0.00 | 0.00 | 80 | 1020.1 |
| 20260507021706 | 27 | 352 | 1.6 | 3.2 | 0.00 | 0.00 | 0.00 | 80 | 1020.1 |
| 20260507021201 | 27 | 33 | 6.4 | 11.3 | 0.00 | 0.00 | 0.00 | 80 | 1019.8 |
| 20260507020700 | 27 | 300 | 3.2 | 9.7 | 0.00 | 0.00 | 0.00 | 80 | 1019.7 |
| 20260507020156 | 27 | 113 | 1.6 | 6.4 | 0.00 | 0.00 | 0.00 | 80 | 1019.7 |
| 20260507015654 | 27 | 90 | 1.6 | 9.7 | 0.00 | 0.00 | 0.00 | 80 | 1019.8 |
| 20260507015151 | 27 | 41 | 3.2 | 11.3 | 0.00 | 0.00 | 0.00 | 80 | 1019.7 |
| 20260507014647 | 27 | 32 | 4.8 | 6.4 | 0.00 | 0.00 | 0.00 | 80 | 1019.9 |
| 20260507014143 | 27 | 345 | 1.6 | 6.4 | 0.00 | 0.00 | 0.00 | 80 | 1019.6 |
| 20260507013641 | 27 | 88 | 3.2 | 9.7 | 0.00 | 0.00 | 0.00 | 80 | 1019.5 |
| 20260507013138 | 27 | 342 | 3.2 | 4.8 | 0.00 | 0.00 | 0.00 | 80 | 1019.4 |
| 20260507012635 | 27 | 33 | 1.6 | 4.8 | 0.00 | 0.00 | 0.00 | 81 | 1019.3 |
| 20260507012130 | 27 | 22 | 4.8 | 9.7 | 0.00 | 0.00 | 0.00 | 80 | 1019.2 |
| 20260507011629 | 27 | 69 | 3.2 | 11.3 | 0.00 | 0.00 | 0.00 | 80 | 1019.1 |
| 20260507011125 | 27 | 250 | 3.2 | 9.7 | 0.00 | 0.00 | 0.00 | 80 | 1018.9 |
| 20260507010620 | 27 | 119 | 8.0 | 16.1 | 0.00 | 0.00 | 0.00 | 80 | 1019.2 |
| 20260507010116 | 27 | 37 | 3.2 | 11.3 | 0.00 | 0.00 | 0.00 | 80 | 1018.8 |
| 20260507005613 | 27 | 97 | 3.2 | 12.9 | 0.00 | 0.00 | 0.00 | 80 | 1019.0 |
| 20260507005109 | 27 | 46 | 4.8 | 12.9 | 0.00 | 0.00 | 0.00 | 80 | 1018.7 |
| 20260507004606 | 27 | 39 | 4.8 | 9.7 | 0.00 | 0.00 | 0.00 | 80 | 1018.7 |
| 20260507004104 | 27 | 57 | 3.2 | 9.7 | 0.00 | 0.00 | 0.00 | 80 | 1018.6 |
| 20260507003600 | 27 | 350 | 4.8 | 6.4 | 0.00 | 0.00 | 0.00 | 80 | 1018.6 |
| 20260507003055 | 27 | 41 | 1.6 | 4.8 | 0.00 | 0.00 | 0.00 | 80 | 1018.4 |
| 20260507002552 | 27 | 61 | 4.8 | 12.9 | 0.00 | 0.00 | 0.00 | 80 | 1018.4 |
| 20260507002047 | 27 | 147 | 3.2 | 14.5 | 0.00 | 0.00 | 0.00 | 79 | 1018.5 |
| 20260507001544 | 27 | 345 | 3.2 | 16.1 | 0.00 | 0.00 | 0.00 | 80 | 1018.5 |
| 20260507001042 | 27 | 15 | 4.8 | 12.9 | 0.00 | 0.00 | 0.00 | 80 | 1018.4 |
| 20260507000538 | 27 | 73 | 3.2 | 12.9 | 0.00 | 0.00 | 0.00 | 80 | 1018.3 |
| 20260507000033 | 27 | 74 | 3.2 | 4.8 | 0.00 | 0.00 | 0.00 | 80 | 1018.3 |
| 20260506235531 | 27 | 352 | 4.8 | 9.7 | 0.00 | 0.00 | 0.00 | 79 | 1018.3 |
| 20260506235021 | 27 | 93 | 6.4 | 11.3 | 0.00 | 0.00 | 0.00 | 80 | 1018.2 |
| 20260506234519 | 27 | 85 | 4.8 | 14.5 | 0.00 | 0.00 | 0.00 | 80 | 1018.2 |
| 20260506234016 | 28 | 86 | 4.8 | 11.3 | 0.00 | 0.00 | 0.00 | 80 | 1018.1 |
| 20260506233513 | 28 | 335 | 3.2 | 17.7 | 0.00 | 0.00 | 0.00 | 79 | 1017.8 |
| 20260506233010 | 28 | 33 | 6.4 | 9.7 | 0.00 | 0.00 | 0.00 | 79 | 1017.9 |
| 20260506232506 | 28 | 2 | 0.0 | 11.3 | 0.00 | 0.00 | 0.00 | 79 | 1018.0 |
| 20260506232001 | 28 | 34 | 4.8 | 22.5 | 0.00 | 0.00 | 0.00 | 79 | 1017.7 |
| 20260506231458 | 28 | 34 | 4.8 | 14.5 | 0.00 | 0.00 | 0.00 | 79 | 1017.4 |
| 20260506230956 | 28 | 346 | 3.2 | 17.7 | 0.00 | 0.00 | 0.00 | 79 | 1017.5 |
| 20260506230452 | 28 | 66 | 4.8 | 12.9 | 0.00 | 0.00 | 0.00 | 79 | 1017.5 |
| 20260506225949 | 28 | 31 | 8.0 | 11.3 | 0.00 | 0.00 | 0.00 | 78 | 1017.7 |
| 20260506225447 | 28 | 54 | 3.2 | 9.7 | 0.00 | 0.00 | 0.00 | 79 | 1017.7 |
| 20260506224943 | 28 | 51 | 6.4 | 16.1 | 0.00 | 0.00 | 0.00 | 78 | 1017.4 |
| 20260506224440 | 28 | 77 | 8.0 | 16.1 | 0.00 | 0.00 | 0.00 | 78 | 1017.5 |
| 20260506223936 | 28 | 53 | 3.2 | 12.9 | 0.00 | 0.00 | 0.00 | 78 | 1017.2 |
| 20260506223432 | 28 | 45 | 6.4 | 11.3 | 0.00 | 0.00 | 0.00 | 77 | 1017.3 |
| 20260506222930 | 28 | 7 | 11.3 | 16.1 | 0.00 | 0.00 | 0.00 | 77 | 1017.1 |
| 20260506222426 | 28 | 23 | 3.2 | 14.5 | 0.00 | 0.00 | 0.00 | 76 | 1017.1 |
| 20260506221923 | 28 | 71 | 6.4 | 16.1 | 0.00 | 0.00 | 0.00 | 75 | 1017.2 |
| 20260506221420 | 29 | 58 | 3.2 | 12.9 | 0.00 | 0.00 | 0.00 | 75 | 1017.1 |
| 20260506220918 | 29 | 110 | 4.8 | 14.5 | 0.00 | 0.00 | 0.00 | 75 | 1016.8 |
| 20260506220414 | 29 | 20 | 6.4 | 9.7 | 0.00 | 0.00 | 0.00 | 74 | 1017.0 |
| 20260506215910 | 29 | 69 | 6.4 | 12.9 | 0.00 | 0.00 | 0.00 | 74 | 1017.0 |
| 20260506215406 | 29 | 93 | 4.8 | 16.1 | 0.00 | 0.00 | 0.00 | 74 | 1017.1 |
| 20260506214902 | 29 | 76 | 6.4 | 17.7 | 0.00 | 0.00 | 0.00 | 73 | 1017.1 |
| 20260506214359 | 29 | 19 | 6.4 | 14.5 | 0.00 | 0.00 | 0.00 | 73 | 1017.1 |
| 20260506213857 | 30 | 31 | 6.4 | 14.5 | 0.00 | 0.00 | 0.00 | 73 | 1017.1 |
| 20260506213354 | 30 | 87 | 4.8 | 9.7 | 0.00 | 0.00 | 0.00 | 72 | 1017.1 |
| 20260506212851 | 30 | 105 | 3.2 | 16.1 | 0.00 | 0.00 | 0.00 | 71 | 1016.9 |
| 20260506212347 | 30 | 359 | 6.4 | 11.3 | 0.00 | 0.00 | 0.00 | 71 | 1016.8 |
| 20260506211842 | 30 | 350 | 4.8 | 11.3 | 0.00 | 0.00 | 0.00 | 71 | 1016.9 |
| 20260506211338 | 30 | 69 | 3.2 | 11.3 | 0.00 | 0.00 | 0.00 | 70 | 1016.9 |
| 20260506210836 | 30 | 10 | 4.8 | 9.7 | 0.00 | 0.00 | 0.00 | 70 | 1017.0 |
| 20260506210332 | 30 | 50 | 3.2 | 6.4 | 0.00 | 0.00 | 0.00 | 71 | 1017.1 |
| 20260506205830 | 31 | 344 | 3.2 | 9.7 | 0.00 | 0.00 | 0.00 | 70 | 1017.2 |
| 20260506205325 | 31 | 8 | 1.6 | 9.7 | 0.00 | 0.00 | 0.00 | 70 | 1017.2 |
| 20260506204822 | 30 | 19 | 4.8 | 11.3 | 0.00 | 0.00 | 0.00 | 69 | 1017.1 |
| 20260506204320 | 31 | 1 | 1.6 | 20.9 | 0.00 | 0.00 | 0.00 | 69 | 1017.1 |
| 20260506203817 | 31 | 314 | 3.2 | 14.5 | 0.00 | 0.00 | 0.00 | 69 | 1017.4 |
| 20260506203314 | 31 | 80 | 6.4 | 12.9 | 0.00 | 0.00 | 0.00 | 68 | 1017.3 |
| 20260506202811 | 31 | 75 | 4.8 | 12.9 | 0.00 | 0.00 | 0.00 | 69 | 1017.5 |
| 20260506202308 | 31 | 14 | 1.6 | 11.3 | 0.00 | 0.00 | 0.00 | 69 | 1017.3 |
| 20260506201804 | 31 | 86 | 6.4 | 12.9 | 0.00 | 0.00 | 0.00 | 68 | 1017.4 |
| 20260506201302 | 31 | 292 | 3.2 | 4.8 | 0.00 | 0.00 | 0.00 | 66 | 1017.5 |
| 20260506200759 | 31 | 337 | 3.2 | 9.7 | 0.00 | 0.00 | 0.00 | 67 | 1017.5 |
| 20260506200255 | 31 | 65 | 8.0 | 12.9 | 0.00 | 0.00 | 0.00 | 67 | 1017.5 |
| 20260506195751 | 31 | 342 | 4.8 | 9.7 | 0.00 | 0.00 | 0.00 | 67 | 1017.6 |
| 20260506195247 | 32 | 126 | 6.4 | 20.9 | 0.00 | 0.00 | 0.00 | 65 | 1017.7 |
| 20260506194745 | 32 | 54 | 3.2 | 6.4 | 0.00 | 0.00 | 0.00 | 63 | 1017.4 |
| 20260506194241 | 32 | 356 | 1.6 | 11.3 | 0.00 | 0.00 | 0.00 | 64 | 1017.7 |
| 20260506193739 | 32 | 330 | 3.2 | 12.9 | 0.00 | 0.00 | 0.00 | 63 | 1017.6 |
| 20260506193236 | 31 | 357 | 3.2 | 12.9 | 0.00 | 0.00 | 0.00 | 65 | 1018.0 |
| 20260506192732 | 32 | 106 | 4.8 | 16.1 | 0.00 | 0.00 | 0.00 | 64 | 1017.6 |
| 20260506192229 | 31 | 242 | 1.6 | 11.3 | 0.00 | 0.00 | 0.00 | 65 | 1017.9 |
| 20260506191726 | 31 | 46 | 3.2 | 12.9 | 0.00 | 0.00 | 0.00 | 65 | 1017.9 |
| 20260506191222 | 31 | 6 | 3.2 | 11.3 | 0.00 | 0.00 | 0.00 | 67 | 1017.7 |
| 20260506190719 | 31 | 102 | 9.7 | 14.5 | 0.00 | 0.00 | 0.00 | 66 | 1017.8 |
| 20260506190216 | 31 | 53 | 4.8 | 11.3 | 0.00 | 0.00 | 0.00 | 66 | 1017.7 |
| 20260506185713 | 32 | 343 | 4.8 | 11.3 | 0.00 | 0.00 | 0.00 | 65 | 1017.8 |
| 20260506185209 | 32 | 0 | 3.2 | 9.7 | 0.00 | 0.00 | 0.00 | 64 | 1018.0 |
| 20260506184707 | 32 | 28 | 6.4 | 20.9 | 0.00 | 0.00 | 0.00 | 65 | 1018.2 |
| 20260506184204 | 32 | 315 | 1.6 | 9.7 | 0.00 | 0.00 | 0.00 | 64 | 1018.1 |
| 20260506183701 | 32 | 190 | 8.0 | 12.9 | 0.00 | 0.00 | 0.00 | 64 | 1018.2 |
| 20260506183156 | 32 | 346 | 3.2 | 11.3 | 0.00 | 0.00 | 0.00 | 64 | 1018.1 |
| 20260506182654 | 32 | 216 | 6.4 | 16.1 | 0.00 | 0.00 | 0.00 | 63 | 1018.3 |
| 20260506182152 | 32 | 42 | 6.4 | 17.7 | 0.00 | 0.00 | 0.00 | 63 | 1018.4 |
| 20260506181649 | 32 | 48 | 1.6 | 6.4 | 0.00 | 0.00 | 0.00 | 63 | 1018.4 |
| 20260506181146 | 32 | 0 | 3.2 | 9.7 | 0.00 | 0.00 | 0.00 | 64 | 1018.6 |
| 20260506180643 | 31 | 313 | 3.2 | 6.4 | 0.00 | 0.00 | 0.00 | 65 | 1018.6 |
| 20260506180139 | 31 | 105 | 3.2 | 6.4 | 0.00 | 0.00 | 0.00 | 64 | 1019.0 |
| 20260506175636 | 32 | 97 | 3.2 | 12.9 | 0.00 | 0.00 | 0.00 | 63 | 1019.0 |
| 20260506175132 | 32 | 110 | 3.2 | 9.7 | 0.00 | 0.00 | 0.00 | 62 | 1018.9 |
| 20260506174631 | 32 | 349 | 1.6 | 9.7 | 0.00 | 0.00 | 0.00 | 63 | 1019.1 |
| 20260506174127 | 32 | 356 | 3.2 | 16.1 | 0.00 | 0.00 | 0.00 | 63 | 1019.3 |
| 20260506173625 | 31 | 340 | 1.6 | 14.5 | 0.00 | 0.00 | 0.00 | 65 | 1019.3 |
| 20260506173121 | 32 | 350 | 4.8 | 14.5 | 0.00 | 0.00 | 0.00 | 65 | 1019.2 |
| 20260506172619 | 32 | 107 | 3.2 | 9.7 | 0.00 | 0.00 | 0.00 | 64 | 1019.4 |
| 20260506172115 | 32 | 29 | 6.4 | 11.3 | 0.00 | 0.00 | 0.00 | 64 | 1019.4 |
| 20260506171613 | 32 | 57 | 8.0 | 12.9 | 0.00 | 0.00 | 0.00 | 63 | 1019.7 |
| 20260506171111 | 32 | 265 | 6.4 | 11.3 | 0.00 | 0.00 | 0.00 | 61 | 1019.6 |
| 20260506170608 | 32 | 339 | 3.2 | 14.5 | 0.00 | 0.00 | 0.00 | 62 | 1019.8 |
| 20260506170105 | 32 | 333 | 3.2 | 22.5 | 0.00 | 0.00 | 0.00 | 63 | 1019.6 |
| 20260506165603 | 32 | 315 | 8.0 | 16.1 | 0.00 | 0.00 | 0.00 | 61 | 1020.0 |
| 20260506165059 | 32 | 340 | 4.8 | 14.5 | 0.00 | 0.00 | 0.00 | 62 | 1019.9 |
| 20260506164556 | 32 | 179 | 3.2 | 9.7 | 0.00 | 0.00 | 0.00 | 62 | 1020.0 |
| 20260506164053 | 32 | 285 | 4.8 | 16.1 | 0.00 | 0.00 | 0.00 | 64 | 1019.9 |
| 20260506163549 | 32 | 218 | 3.2 | 17.7 | 0.00 | 0.00 | 0.00 | 64 | 1020.1 |
| 20260506163046 | 32 | 356 | 3.2 | 12.9 | 0.00 | 0.00 | 0.00 | 64 | 1020.0 |
| 20260506162542 | 32 | 159 | 4.8 | 14.5 | 0.00 | 0.00 | 0.00 | 63 | 1020.2 |
| 20260506162039 | 32 | 357 | 3.2 | 20.9 | 0.00 | 0.00 | 0.00 | 63 | 1020.2 |
| 20260506161536 | 32 | 16 | 1.6 | 11.3 | 0.00 | 0.00 | 0.00 | 64 | 1020.2 |
| 20260506161033 | 32 | 322 | 8.0 | 12.9 | 0.00 | 0.00 | 0.00 | 63 | 1020.2 |
| 20260506160531 | 32 | 256 | 9.7 | 20.9 | 0.00 | 0.00 | 0.00 | 63 | 1020.4 |
| 20260506160028 | 32 | 225 | 9.7 | 12.9 | 0.00 | 0.00 | 0.00 | 63 | 1020.1 |
| 20260506155526 | 32 | 348 | 4.8 | 12.9 | 0.00 | 0.00 | 0.00 | 63 | 1020.5 |
| 20260506153657 | 32 | 318 | 3.2 | 9.7 | 0.00 | 0.00 | 0.00 | 64 | 1020.6 |
| 20260506153154 | 31 | 170 | 1.6 | 6.4 | 0.00 | 0.00 | 0.00 | 66 | 1020.6 |
| 20260506152651 | 31 | 222 | 4.8 | 11.3 | 0.00 | 0.00 | 0.00 | 66 | 1020.5 |
| 20260506152149 | 31 | 19 | 3.2 | 20.9 | 0.00 | 0.00 | 0.00 | 66 | 1020.8 |
| 20260506151648 | 31 | 79 | 4.8 | 14.5 | 0.00 | 0.00 | 0.00 | 65 | 1020.6 |
| 20260506151144 | 31 | 103 | 6.4 | 12.9 | 0.00 | 0.00 | 0.00 | 64 | 1020.8 |
| 20260506150641 | 32 | 216 | 8.0 | 11.3 | 0.00 | 0.00 | 0.00 | 64 | 1020.6 |
| 20260506150138 | 31 | 255 | 3.2 | 6.4 | 0.00 | 0.00 | 0.00 | 65 | 1020.7 |
| 20260506145635 | 31 | 339 | 1.6 | 16.1 | 0.00 | 0.00 | 0.00 | 65 | 1020.7 |
| 20260506145131 | 31 | 148 | 4.8 | 12.9 | 0.00 | 0.00 | 0.00 | 65 | 1020.8 |
| 20260506144629 | 32 | 129 | 6.4 | 16.1 | 0.00 | 0.00 | 0.00 | 64 | 1020.8 |
| 20260506144125 | 31 | 26 | 3.2 | 11.3 | 0.00 | 0.00 | 0.00 | 65 | 1020.7 |
| 20260506143623 | 31 | 300 | 6.4 | 12.9 | 0.00 | 0.00 | 0.00 | 65 | 1020.9 |
| 20260506143121 | 31 | 134 | 8.0 | 11.3 | 0.00 | 0.00 | 0.00 | 65 | 1020.8 |
| 20260506142619 | 31 | 344 | 3.2 | 11.3 | 0.00 | 0.00 | 0.00 | 65 | 1020.9 |
| 20260506142117 | 31 | 107 | 4.8 | 11.3 | 0.00 | 0.00 | 0.00 | 65 | 1020.9 |
| 20260506141614 | 31 | 306 | 3.2 | 9.7 | 0.00 | 0.00 | 0.00 | 66 | 1020.9 |
| 20260506141112 | 31 | 331 | 3.2 | 11.3 | 0.00 | 0.00 | 0.00 | 66 | 1020.8 |
| 20260506140610 | 31 | 348 | 4.8 | 9.7 | 0.00 | 0.00 | 0.00 | 66 | 1020.9 |
| 20260506140107 | 31 | 31 | 8.0 | 17.7 | 0.00 | 0.00 | 0.00 | 66 | 1020.8 |
| 20260506135603 | 31 | 27 | 4.8 | 12.9 | 0.00 | 0.00 | 0.00 | 66 | 1021.0 |
| 20260506135059 | 31 | 347 | 4.8 | 11.3 | 0.00 | 0.00 | 0.00 | 65 | 1020.8 |
| 20260506134556 | 31 | 290 | 6.4 | 12.9 | 0.00 | 0.00 | 0.00 | 67 | 1020.6 |
| 20260506134052 | 31 | 244 | 3.2 | 14.5 | 0.00 | 0.00 | 0.00 | 65 | 1020.8 |
| 20260506133549 | 31 | 317 | 1.6 | 11.3 | 0.00 | 0.00 | 0.00 | 66 | 1020.9 |
| 20260506133046 | 31 | 134 | 3.2 | 4.8 | 0.00 | 0.00 | 0.00 | 68 | 1020.8 |
| 20260506132544 | 30 | 128 | 4.8 | 11.3 | 0.00 | 0.00 | 0.00 | 68 | 1020.8 |
| 20260506132041 | 30 | 28 | 8.0 | 16.1 | 0.00 | 0.00 | 0.00 | 68 | 1020.8 |
| 20260506131538 | 30 | 177 | 6.4 | 11.3 | 0.00 | 0.00 | 0.00 | 70 | 1020.9 |
| 20260506131034 | 30 | 33 | 3.2 | 20.9 | 0.00 | 0.00 | 0.00 | 72 | 1020.8 |
| 20260506130531 | 30 | 355 | 3.2 | 9.7 | 0.00 | 0.00 | 0.00 | 72 | 1020.8 |
| 20260506130029 | 30 | 339 | 1.6 | 4.8 | 0.00 | 0.00 | 0.00 | 73 | 1021.0 |
| 20260506125527 | 30 | 223 | 4.8 | 9.7 | 0.00 | 0.00 | 0.00 | 73 | 1021.0 |
| 20260506125024 | 29 | 150 | 9.7 | 22.5 | 0.00 | 0.00 | 0.00 | 74 | 1020.8 |
| 20260506124522 | 29 | 263 | 4.8 | 14.5 | 0.00 | 0.00 | 0.00 | 73 | 1020.7 |
| 20260506124020 | 29 | 19 | 4.8 | 11.3 | 0.00 | 0.00 | 0.00 | 72 | 1020.8 |
| 20260506123517 | 29 | 69 | 8.0 | 12.9 | 0.00 | 0.00 | 0.00 | 72 | 1020.9 |
| 20260506123015 | 29 | 67 | 9.7 | 12.9 | 0.00 | 0.00 | 0.00 | 73 | 1020.7 |
| 20260506122512 | 29 | 154 | 6.4 | 9.7 | 0.00 | 0.00 | 0.00 | 73 | 1020.7 |
| 20260506122010 | 29 | 307 | 1.6 | 11.3 | 0.00 | 0.00 | 0.00 | 73 | 1020.6 |
| 20260506121507 | 29 | 345 | 3.2 | 11.3 | 0.00 | 0.00 | 0.00 | 74 | 1020.7 |
| 20260506121003 | 28 | 328 | 4.8 | 9.7 | 0.00 | 0.00 | 0.00 | 76 | 1020.7 |
| 20260506120501 | 28 | 84 | 6.4 | 9.7 | 0.00 | 0.00 | 0.00 | 77 | 1020.4 |
| 20260506115958 | 28 | 263 | 1.6 | 6.4 | 0.00 | 0.00 | 0.00 | 78 | 1020.4 |
| 20260506115456 | 28 | 158 | 6.4 | 11.3 | 0.00 | 0.00 | 0.00 | 77 | 1020.5 |
| 20260506114954 | 28 | 345 | 0.0 | 4.8 | 0.00 | 0.00 | 0.00 | 77 | 1020.3 |
| 20260506114451 | 28 | 346 | 1.6 | 4.8 | 0.00 | 0.00 | 0.00 | 76 | 1020.3 |
| 20260506113950 | 28 | 348 | 0.0 | 6.4 | 0.00 | 0.00 | 0.00 | 76 | 1020.3 |
| 20260506113447 | 28 | 324 | 4.8 | 9.7 | 0.00 | 0.00 | 0.00 | 77 | 1020.3 |
| 20260506112943 | 28 | 287 | 1.6 | 6.4 | 0.00 | 0.00 | 0.00 | 78 | 1020.4 |
| 20260506112441 | 28 | 79 | 3.2 | 14.5 | 0.00 | 0.00 | 0.00 | 78 | 1020.0 |
| 20260506111938 | 28 | 348 | 3.2 | 11.3 | 0.00 | 0.00 | 0.00 | 78 | 1020.0 |
| 20260506111437 | 27 | 249 | 6.4 | 6.4 | 0.00 | 0.00 | 0.00 | 79 | 1020.0 |
| 20260506110933 | 27 | 243 | 3.2 | 9.7 | 0.00 | 0.00 | 0.00 | 80 | 1019.9 |
| 20260506110431 | 27 | 11 | 1.6 | 4.8 | 0.00 | 0.00 | 0.00 | 81 | 1019.8 |
| 20260506105927 | 27 | 125 | 3.2 | 4.8 | 0.00 | 0.00 | 0.00 | 81 | 1019.6 |
| 20260506105424 | 27 | 16 | 1.6 | 11.3 | 0.00 | 0.00 | 0.00 | 82 | 1019.7 |
| 20260506104921 | 27 | 236 | 3.2 | 9.7 | 0.00 | 0.00 | 0.00 | 82 | 1019.8 |
| 20260506104419 | 27 | 315 | 1.6 | 6.4 | 0.00 | 0.00 | 0.00 | 82 | 1019.7 |
| 20260506103917 | 27 | 357 | 1.6 | 3.2 | 0.00 | 0.00 | 0.00 | 82 | 1019.7 |
| 20260506103414 | 27 | 147 | 3.2 | 4.8 | 0.00 | 0.00 | 0.00 | 82 | 1019.8 |
| 20260506102911 | 27 | 16 | 1.6 | 11.3 | 0.00 | 0.00 | 0.00 | 82 | 1019.7 |
| 20260506102409 | 26 | 357 | 1.6 | 3.2 | 0.00 | 0.00 | 0.00 | 83 | 1019.6 |
| 20260506101906 | 26 | 30 | 1.6 | 11.3 | 0.00 | 0.00 | 0.00 | 83 | 1019.4 |
| 20260506101402 | 26 | 353 | 3.2 | 4.8 | 0.00 | 0.00 | 0.00 | 83 | 1019.5 |
| 20260506100859 | 26 | 26 | 4.8 | 9.7 | 0.00 | 0.00 | 0.00 | 82 | 1019.4 |
| 20260506100358 | 26 | 210 | 4.8 | 9.7 | 0.00 | 0.00 | 0.00 | 82 | 1019.3 |
| 20260506095856 | 26 | 240 | 1.6 | 4.8 | 0.00 | 0.00 | 0.00 | 82 | 1019.4 |
| 20260506095354 | 26 | 280 | 0.0 | 3.2 | 0.00 | 0.00 | 0.00 | 82 | 1019.3 |
| 20260506094850 | 26 | 343 | 1.6 | 6.4 | 0.00 | 0.00 | 0.00 | 82 | 1019.1 |
| 20260506094349 | 26 | 0 | 4.8 | 11.3 | 0.00 | 0.00 | 0.00 | 82 | 1019.1 |
| 20260506093846 | 26 | 62 | 3.2 | 9.7 | 0.00 | 0.00 | 0.00 | 82 | 1019.3 |
| 20260506093343 | 26 | 350 | 1.6 | 9.7 | 0.00 | 0.00 | 0.00 | 82 | 1019.1 |
| 20260506092841 | 26 | 76 | 3.2 | 4.8 | 0.00 | 0.00 | 0.00 | 82 | 1019.2 |
| 20260506092339 | 26 | 341 | 1.6 | 6.4 | 0.00 | 0.00 | 0.00 | 82 | 1019.0 |
| 20260506091835 | 26 | 274 | 0.0 | 4.8 | 0.00 | 0.00 | 0.00 | 82 | 1019.1 |
| 20260506091333 | 26 | 330 | 1.6 | 4.8 | 0.00 | 0.00 | 0.00 | 82 | 1019.2 |
| 20260506090830 | 26 | 307 | 1.6 | 6.4 | 0.00 | 0.00 | 0.00 | 82 | 1019.0 |
| 20260506090328 | 26 | 49 | 1.6 | 3.2 | 0.00 | 0.00 | 0.00 | 82 | 1019.0 |
| 20260506085824 | 26 | 67 | 3.2 | 4.8 | 0.00 | 0.00 | 0.00 | 81 | 1018.9 |
| 20260506085320 | 26 | 244 | 3.2 | 4.8 | 0.00 | 0.00 | 0.00 | 81 | 1019.1 |
| 20260506084817 | 26 | 323 | 1.6 | 3.2 | 0.00 | 0.00 | 0.00 | 81 | 1019.0 |
| 20260506084314 | 26 | 300 | 3.2 | 4.8 | 0.00 | 0.00 | 0.00 | 80 | 1019.0 |
| 20260506083810 | 26 | 349 | 1.6 | 3.2 | 0.00 | 0.00 | 0.00 | 80 | 1019.0 |
| 20260506083308 | 26 | 78 | 6.4 | 9.7 | 0.00 | 0.00 | 0.00 | 80 | 1018.8 |
| 20260506082806 | 26 | 66 | 1.6 | 6.4 | 0.00 | 0.00 | 0.00 | 80 | 1019.0 |
| 20260506082304 | 26 | 333 | 3.2 | 11.3 | 0.00 | 0.00 | 0.00 | 80 | 1018.9 |
| 20260506081758 | 26 | 208 | 1.6 | 4.8 | 0.00 | 0.00 | 0.00 | 80 | 1019.0 |
| 20260506081256 | 26 | 51 | 1.6 | 4.8 | 0.00 | 0.00 | 0.00 | 81 | 1018.9 |
| 20260506080754 | 26 | 336 | 4.8 | 12.9 | 0.00 | 0.00 | 0.00 | 81 | 1018.7 |
| 20260506080250 | 26 | 104 | 3.2 | 6.4 | 0.00 | 0.00 | 0.00 | 81 | 1018.8 |
| 20260506073234 | 26 | 247 | 1.6 | 6.4 | 0.00 | 0.00 | 0.00 | 81 | 1018.6 |
| 20260506072731 | 26 | 12 | 3.2 | 9.7 | 0.00 | 0.00 | 0.00 | 81 | 1018.4 |
| 20260506072228 | 26 | 1 | 1.6 | 11.3 | 0.00 | 0.00 | 0.00 | 81 | 1018.6 |
| 20260506071726 | 26 | 287 | 3.2 | 4.8 | 0.00 | 0.00 | 0.00 | 81 | 1018.6 |
| 20260506071224 | 26 | 80 | 6.4 | 9.7 | 0.00 | 0.00 | 0.00 | 81 | 1018.7 |
| 20260506070720 | 26 | 330 | 1.6 | 9.7 | 0.00 | 0.00 | 0.00 | 81 | 1018.7 |
| 20260506070217 | 26 | 25 | 1.6 | 4.8 | 0.00 | 0.00 | 0.00 | 81 | 1018.8 |
| 20260506062154 | 26 | 17 | 3.2 | 11.3 | 0.00 | 0.00 | 0.00 | 80 | 1018.7 |
| 20260506061650 | 26 | 332 | 1.6 | 9.7 | 0.00 | 0.00 | 0.00 | 80 | 1019.1 |
| 20260506061148 | 26 | 98 | 4.8 | 4.8 | 0.00 | 0.00 | 0.00 | 80 | 1018.8 |
| 20260506060646 | 26 | 37 | 6.4 | 11.3 | 0.00 | 0.00 | 0.00 | 80 | 1019.1 |
| 20260506060143 | 27 | 110 | 4.8 | 9.7 | 0.00 | 0.00 | 0.00 | 80 | 1019.1 |
| 20260506051115 | 27 | 5 | 1.6 | 11.3 | 0.00 | 0.00 | 0.00 | 80 | 1019.9 |
| 20260506050613 | 27 | 352 | 3.2 | 6.4 | 0.00 | 0.00 | 0.00 | 80 | 1019.9 |
| 20260506050110 | 27 | 324 | 3.2 | 6.4 | 0.00 | 0.00 | 0.00 | 80 | 1020.0 |
| 20260506045103 | 27 | 206 | 3.2 | 6.4 | 0.00 | 0.00 | 0.00 | 80 | 1020.0 |
| 20260506044601 | 27 | 85 | 3.2 | 6.4 | 0.00 | 0.00 | 0.00 | 80 | 1019.9 |
| 20260506044058 | 27 | 207 | 4.8 | 11.3 | 0.00 | 0.00 | 0.00 | 80 | 1019.8 |
| 20260506043555 | 27 | 64 | 3.2 | 4.8 | 0.00 | 0.00 | 0.00 | 80 | 1020.0 |